COOK1: Arkansas River Nr Coolidge, KS

                                SHEF ID:       COOK1     ARKANSAS R NR COOLIDGE, KS
STATION TYPE:
Regulating: Stage = 8.00, Flow = 2050

PRECIP STAGE STAGE(2) RIV-FLOW WTR-TEMP CONDUCT BAT-LOAD
in ft ft cfs F umho/cm volt
Ccp-Rev Ccp-Rev Ccp-Rev Ccp-Rev Ccp-Rev Ccp-Rev Ccp-Rev
(America/Chicago)
06/28 00:00 0.00 2.46 2.54 51 73.94 6147 12.95
06/28 01:00 0.00 2.43 2.58 48 72.88 6185 12.89
06/28 02:00 0.00 2.42 2.55 47 72.14 6201 12.89
06/28 03:00 0.00 2.41 2.54 47 71.38 6217 12.89
06/28 04:00 0.00 2.41 2.54 47 70.72 6217 12.89
06/28 05:00 0.00 2.40 2.55 46 69.93 6232 12.89
06/28 06:00 0.00 2.40 2.56 46 69.04 6271 12.83
06/28 07:00 0.00 2.40 2.55 46 68.22 6305 12.83
06/28 08:00 0.00 2.41 2.56 47 67.96 6307 12.83
06/28 09:00 0.00 2.43 2.56 48 68.81 6286 12.89
06/28 10:00 0.00 2.42 2.56 47 70.74 6262 13.12
06/28 11:00 0.00 2.41 2.57 47 73.20 6221 13.48
06/28 12:00 0.00 2.41 2.56 47 76.06 6181 13.71
06/28 13:00 0.00 2.41 2.51 47 78.89 6165 13.77
06/28 14:00 0.00 2.41 2.51 47 81.73 6169 13.65
06/28 15:00 0.00 2.40 2.51 46 84.25 6179 13.59
06/28 16:00 0.00 2.42 2.51 47 85.98 6197 13.18
06/28 17:00 0.00 2.41 2.49 47 86.99 6208 13.48
06/28 18:00 0.00 2.41 2.50 47 87.35 6223 13.30
06/28 19:00 0.00 2.40 2.50 46 86.59 6203 13.18
06/28 20:00 0.00 2.41 2.50 47 84.99 6183 13.12
06/28 21:00 0.00 2.40 2.51 46 82.58 6192 13.07
06/28 22:00 0.00 2.41 2.51 47 80.56 6169 13.00
06/28 23:00 ---- ---- ---- ---- ---- ---- ----
Data processed at Sat 29Jun2024 04:30 GMT

Parsing this webpage?

Checkout our new Data API! CWMSDataAPI (CDA)

Timeseries IDs (TSIDs)

TSIDs used from left to right in the data table
COOL.Precip-Inc.Total.1Hour.1Hour.Ccp-Rev
COOL.Stage.Inst.1Hour.0.Ccp-Rev
COOL.Stage-Alt.Inst.1Hour.0.Ccp-Rev
COOL.Flow.Inst.1Hour.0.Ccp-Rev
COOL.Temp-Water.Inst.1Hour.0.Ccp-Rev
COOL.Cond.Inst.1Hour.0.Ccp-Rev
COOL.Volt-Battery Load.Inst.1Hour.0.Ccp-Rev

                            

All information presented herein is the property of the government of the United States of America and may be revised or deleted at any time without prior notice. Dissemination of this information without the expressed written consent of the Public Affairs Office, Tulsa District U.S. Army Corps of Engineers is strictly prohibited. These data are gathered electronically and, as presented, have NOT undergone any form of quality control. These data are NOT guaranteed to be valid or correct.